Sea Amore — H9OC — position and weather

sailwx.info

Track history (hours):
 
Tides and Currents Weather Stations Pressure Air Temp Water Temp Dewpoint Dewpoint Depression Visibility Wind Speed Wind Dir Waves Ship Positions

Sea Amore

Last reported at 2014-Jul-21 00:23 UTC. Time now 2014-Jul-23 07:56 UTC.
Position N 37°17' E 011°47'.

Length 148 m; draft 5.7 m.

Type: Cargo ship. MMSI: 357019000.

Date/timePositionNaut miles runAvg speedWind from/ knotsBaromVisibWave heightAir tempDewpointWater temp
2014-Jul-21 00:23N 37°17' E 011°47'1112.8
2014-Jul-20 23:33N 37°14' E 011°59'1313.0
2014-Jul-20 22:33N 37°10' E 012°15'1313.0
2014-Jul-20 21:33N 37°06' E 012°31'1313.5
2014-Jul-20 20:33N 37°03' E 012°47'1313.5
2014-Jul-20 19:33N 36°59' E 013°03'1313.4
2014-Jul-20 18:33N 36°55' E 013°19'1313.4
2014-Jul-20 17:33N 36°51' E 013°35'1313.0
2014-Jul-20 16:33N 36°48' E 013°51'1313.3
2014-Jul-20 15:33N 36°44' E 014°07'1313.1
2014-Jul-20 14:33N 36°40' E 014°22'1313.0
2014-Jul-20 13:33N 36°37' E 014°38'1313.1
2014-Jul-20 12:33N 36°36' E 014°54'1313.2
2014-Jul-20 11:33N 36°36' E 015°11'  
2014-Jul-11 23:19N 37°33' E 023°42'912.2
2014-Jul-11 22:33N 37°43' E 023°41'1211.6
2014-Jul-11 21:33N 37°53' E 023°33'1 1.0
2014-Jul-11 20:31N 37°53' E 023°32'0 0.0
2014-Jul-11 19:31N 37°53' E 023°32'0 0.0
2014-Jul-11 18:31N 37°53' E 023°32'0 0.0
2014-Jul-11 17:31N 37°53' E 023°32'0 0.0
2014-Jul-11 16:31N 37°53' E 023°32'1 0.7
2014-Jul-11 15:33N 37°53' E 023°33'8 7.9
2014-Jul-11 14:33N 37°48' E 023°41'1111.3
2014-Jul-11 13:33N 37°39' E 023°50'2310.8
2014-Jul-11 11:22N 37°45' E 024°19'1411.6
2014-Jul-11 10:09N 37°54' E 024°32'710.9
2014-Jul-11 09:33N 37°60' E 024°36'  
Track history (hours):
 
Tides and Currents Weather Stations Pressure Air Temp Water Temp Dewpoint Dewpoint Depression Visibility Wind Speed Wind Dir Waves Ship Positions

Sea Amore

Last reported at 2014-Jul-21 00:23 UTC. Time now 2014-Jul-23 07:56 UTC.
Position N 37°17' E 011°47'.

Length 148 m; draft 5.7 m.

Type: Cargo ship. MMSI: 357019000.

Date/timePositionNaut miles runAvg speedWind from/ knotsBaromVisibWave heightAir tempDewpointWater temp
2014-Jul-21 00:23N 37°17' E 011°47'1112.8
2014-Jul-20 23:33N 37°14' E 011°59'1313.0
2014-Jul-20 22:33N 37°10' E 012°15'1313.0
2014-Jul-20 21:33N 37°06' E 012°31'1313.5
2014-Jul-20 20:33N 37°03' E 012°47'1313.5
2014-Jul-20 19:33N 36°59' E 013°03'1313.4
2014-Jul-20 18:33N 36°55' E 013°19'1313.4
2014-Jul-20 17:33N 36°51' E 013°35'1313.0
2014-Jul-20 16:33N 36°48' E 013°51'1313.3
2014-Jul-20 15:33N 36°44' E 014°07'1313.1
2014-Jul-20 14:33N 36°40' E 014°22'1313.0
2014-Jul-20 13:33N 36°37' E 014°38'1313.1
2014-Jul-20 12:33N 36°36' E 014°54'1313.2
2014-Jul-20 11:33N 36°36' E 015°11'  
2014-Jul-11 23:19N 37°33' E 023°42'912.2
2014-Jul-11 22:33N 37°43' E 023°41'1211.6
2014-Jul-11 21:33N 37°53' E 023°33'1 1.0
2014-Jul-11 20:31N 37°53' E 023°32'0 0.0
2014-Jul-11 19:31N 37°53' E 023°32'0 0.0
2014-Jul-11 18:31N 37°53' E 023°32'0 0.0
2014-Jul-11 17:31N 37°53' E 023°32'0 0.0
2014-Jul-11 16:31N 37°53' E 023°32'1 0.7
2014-Jul-11 15:33N 37°53' E 023°33'8 7.9
2014-Jul-11 14:33N 37°48' E 023°41'1111.3
2014-Jul-11 13:33N 37°39' E 023°50'2310.8
2014-Jul-11 11:22N 37°45' E 024°19'1411.6
2014-Jul-11 10:09N 37°54' E 024°32'710.9
2014-Jul-11 09:33N 37°60' E 024°36'  

Dump ship's entire track history